Curacao Island, Netherlands

7:21 AM AST on December 10, 2016 (GMT -0400)
Flamingo

Weather History for TNCB - September, 2014

Change the Weather History Date:

Saturday, September 20, 2014

  Actual Average Record
Temperature  
Mean Temperature 86 °F -  
Max Temperature 89 °F 88 °F 95 °F (2005)
Min Temperature 82 °F 81 °F 46 °F (2006)
Cooling Degree Days 20    
Growing Degree Days 36 (Base 50)    
Moisture  
Dew Point 76 °F    
Average Humidity 74    
Maximum Humidity 84    
Minimum Humidity 62    
Precipitation  
Precipitation 0.00 in - - ()
Sea Level Pressure  
Sea Level Pressure 29.86 in    
Wind  
Wind Speed 12 mph ()    
Max Wind Speed 21 mph    
Max Gust Speed 28 mph    
Visibility 6.2 miles    
Events      
Averages and records for this station are not official NWS values.
T = Trace of Precipitation, MM = Missing Value Source: Averaged Metar Reports

Daily Weather History Graph

Daily Weather History Graph

Search for Another Location

Airport or City:

Trip Planner

Search our weather history database for the weather conditions in past years. The results will help you decide how hot, cold, wet, or windy it might be!

Date:

Astronomy

Sep. 20, 2014 Rise Set
Actual Time 6:22 AM AST 6:30 PM AST
Civil Twilight 6:01 AM AST 6:51 PM AST
Nautical Twilight 5:36 AM AST 7:16 PM AST
Astronomical Twilight 5:11 AM AST 7:40 PM AST
Moon 3:26 AM AST (9/20) 4:07 PM AST (9/20)
Length of Visible Light 12h 50m
Length of Day
12h 08m
Waning Crescent, 11% of the Moon is Illuminated
Sep 20
Waning Crescent
Sep 24
New
Oct 1
First Quarter
Oct 8
Full
Oct 15
Last Quarter

Hourly Weather History & Observations

Time (AST) Temp. Heat Index Dew Point Humidity Pressure Visibility Wind Dir Wind Speed Gust Speed Precip Events Conditions
12:00 AM 82.4 °F 89.5 °F 75.2 °F 79% 29.86 in - East 10.4 mph - N/A   Unknown
1:00 AM 82.4 °F 89.5 °F 75.2 °F 79% 29.86 in - East 10.4 mph - N/A   Unknown
2:00 AM 82.4 °F 89.5 °F 75.2 °F 79% 29.83 in - East 9.2 mph - N/A   Unknown
3:00 AM 82.4 °F 89.5 °F 75.2 °F 79% 29.83 in - East 8.1 mph - N/A   Unknown
4:00 AM 82.4 °F 89.5 °F 75.2 °F 79% 29.80 in - East 8.1 mph - N/A   Unknown
5:00 AM 82.4 °F 89.5 °F 75.2 °F 79% 29.83 in - East 9.2 mph - N/A   Unknown
6:00 AM 82.4 °F 90.9 °F 77.0 °F 84% 29.83 in - East 8.1 mph - N/A   Unknown
7:00 AM 82.4 °F 90.9 °F 77.0 °F 84% 29.86 in - ENE 11.5 mph - N/A   Unknown
8:00 AM 84.2 °F 94.1 °F 77.0 °F 79% 29.89 in - East 15.0 mph - N/A   Unknown
9:00 AM 86.0 °F 96.9 °F 77.0 °F 74% 29.92 in 6.2 mi East 17.3 mph - N/A   Scattered Clouds
10:00 AM 87.8 °F 99.7 °F 77.0 °F 70% 29.92 in 6.2 mi East 18.4 mph - N/A   Scattered Clouds
11:00 AM 89.6 °F 102.2 °F 77.0 °F 66% 29.92 in 6.2 mi East 16.1 mph 27.6 mph N/A   Scattered Clouds
12:00 PM 87.8 °F 97.6 °F 75.2 °F 66% 29.89 in - East 19.6 mph - N/A   Unknown
1:00 PM 87.8 °F 97.6 °F 75.2 °F 66% 29.89 in 6.2 mi East 17.3 mph - N/A   Scattered Clouds
2:00 PM 87.8 °F 97.6 °F 75.2 °F 66% 29.83 in 6.2 mi ESE 11.5 mph - N/A   Mostly Cloudy
3:00 PM 87.8 °F 97.6 °F 75.2 °F 66% 29.83 in 6.2 mi East 19.6 mph - N/A   Scattered Clouds
4:00 PM 87.8 °F 95.6 °F 73.4 °F 62% 29.80 in - East 20.7 mph - N/A   Unknown
5:00 PM 86.0 °F 95.1 °F 75.2 °F 70% 29.80 in 6.2 mi East 18.4 mph - N/A   Scattered Clouds
6:00 PM 86.0 °F 95.1 °F 75.2 °F 70% 29.80 in - ENE 18.4 mph - N/A   Unknown
7:00 PM 84.2 °F 92.3 °F 75.2 °F 74% 29.83 in - ENE 18.4 mph - N/A   Unknown
8:00 PM 84.2 °F 92.3 °F 75.2 °F 74% 29.86 in - East 17.3 mph - N/A   Unknown
9:00 PM 84.2 °F 92.3 °F 75.2 °F 74% 29.89 in - East 15.0 mph - N/A   Unknown
10:00 PM 84.2 °F 92.3 °F 75.2 °F 74% 29.92 in - ENE 15.0 mph - N/A   Unknown